Powrót do katalogu

QIANFAN-141

AktywnyŁącznośćPO
NORAD 69087·PAYLOAD·🇨🇳 China

Wystrzelony May 12, 2026 z Taiyuan Satellite Launch Center

Loading…

Następne Przeloty (najbliższe 24 godziny)

TLE

ŚwieżeSource: Space-Track

Epoka: Sep 14, 2026, 14:04 UTC

1 69087U 26104Q   26257.58672070  .00000027  00000-0  22876-4 0  9998
2 69087  88.9905 332.3185 0002232 113.9492 246.1893 13.51019913 17244

Śledź QIANFAN-141 w czasie rzeczywistym z AllMySat

Download on the App Store